Flag for Canada Weather past 2 weeks in Red Deer, Alberta, Canada

Now
45 °F

Partly sunny.


Feels Like: 40 °F
Forecast: 35 / 52 °F
Wind: 8 mph from South

Location: Red Deer


UV Index: 0 (Low)

Visibility: 15 mi


Pressure: 29.74 "Hg

Humidity: 61%

Dew point: 32 °F

Location of Red DeerLocation

Historic Weather in Red Deer

°F

Red Deer temperature yesterday

Maximum temperature yesterday: 34 °F (at 5:00 PM)
Minimum temperature yesterday: 30 °F (at 5:00 AM)
Average temperature yesterday: 32 °F

Past Weeks' High & Low Weather Summary

 TemperatureHumidityPressure
High54 °F (Apr 8, 3:00 PM)100% (Apr 5, 5:00 AM)30.50 "Hg (Apr 5, 5:00 AM)
Low14 °F (Apr 5, 7:00 AM)28% (Apr 14, 6:00 PM)29.66 "Hg (Apr 8, 9:00 PM)
Average35 °F73%29.96 "Hg
* Reported Apr 4 8:00 PM — Apr 19 8:00 PM, Red Deer, Weather by CustomWeather, © 2014

Note: Actual official high and low records may vary slightly from our data, if they occured in-between our weather recording intervals... More about our weather records

Advertising

Historic Weather Conditions — Data for Previous 24 hours

 ConditionsComfort  
Time TempWeatherWind HumidityBarometerVisibility
8:00 PM
Apr 19
46 °FPartly sunny.8 mph57%29.75 "Hg15 mi
7:00 PM50 °FMostly cloudy.8 mph50%29.78 "Hg15 mi
6:00 PM50 °FOvercast.9 mph43%29.78 "Hg15 mi
5:00 PM52 °FPartly sunny.12 mph44%29.80 "Hg15 mi
4:00 PM52 °FScattered clouds.12 mph47%29.81 "Hg15 mi
3:00 PM52 °FScattered clouds.9 mph41%29.83 "Hg15 mi
2:00 PM50 °FScattered clouds.6 mph58%29.85 "Hg15 mi
1:00 PM48 °FPassing clouds.8 mph58%29.87 "Hg15 mi
12:00 PM45 °FPassing clouds.3 mph71%29.88 "Hg15 mi
11:00 AM43 °FPassing clouds.5 mph76%29.92 "Hg15 mi
10:00 AM37 °FPartly sunny.5 mph87%29.93 "Hg15 mi
9:00 AM34 °FPartly sunny.8 mph100%29.93 "Hg12 mi
8:00 AM30 °FPartly sunny.7 mph100%29.94 "Hg10 mi
7:00 AM27 °FIce fog.7 mph100%29.94 "Hg6 mi
6:04 AMN/AFog.6 mphN/AN/A3 mi
5:00 AM27 °FIce fog.5 mph100%29.93 "Hg1 mi
4:00 AM27 °FIce fog.3 mph100%29.93 "Hg1 mi
3:00 AM28 °FPassing clouds.5 mph100%29.93 "Hg10 mi
2:00 AM34 °FOvercast.6 mph87%29.93 "Hg10 mi
1:00 AM32 °FOvercast.5 mph100%29.93 "Hg10 mi
12:00 AM34 °FOvercast.5 mph93%29.93 "Hg8 mi
11:00 PM
Apr 18
34 °FOvercast.2 mph93%29.93 "Hg8 mi
10:00 PM34 °FMostly cloudy.5 mph93%29.91 "Hg8 mi
9:00 PM34 °FFog.6 mph93%29.90 "Hg5 mi
Weather by CustomWeather, © 2014

See weather overview